[[{"header":{"parameterUnit":"m.s-1","parameterCategory":1,"la1":30.2991,"la2":30.254,"lo1":-89.0895,"lo2":-89.0444,"dy":0.0017,"dx":0.0017,"nx":28,"ny":28,"refTime":"2025-07-18T21:00:00:Z","depth":0,"parameterNumber":2,"parameterNumberName":"U-component_of_WINDS"},"data":[0,0,0,0,0,0,0,0,0,0,0,0,0,0,0,0,0,0,0,0,0,0,0,0,0,0,0,0,0,0,0,0,0,0,0,0,0,0,0,0,0,0,0,0,0,0,0,0,0,0,0,0,0,0,0,0,0,0,2.5833,2.5835,0,2.5938,2.5939,2.5941,2.5922,2.592,2.5918,2.5916,2.6025,2.6029,2.6034,0,0,0,0,0,0,0,0,0,0,0,0,0,2.5616,2.562,2.5833,2.5835,2.5836,2.5938,2.5939,2.5941,2.5922,2.592,2.5917,2.5915,2.6023,2.6029,2.6034,0,0,0,0,0,0,0,0,0,0,0,0,0,2.5715,2.5622,2.5833,2.5839,2.584,2.5938,2.5939,2.5941,2.5922,2.592,2.5917,2.5914,2.6021,2.6028,2.6035,2.6134,0,0,2.6056,2.6059,0,0,0,0,0,0,0,0,2.5709,2.5723,2.5837,2.5839,2.584,2.5914,2.5903,2.6006,2.5923,2.5891,2.5916,2.5913,2.599,2.5999,2.6025,2.6139,2.6143,2.6057,2.6061,2.6064,2.6066,0,0,0,0,0,0,0,2.5702,2.5718,2.5875,2.5838,2.5841,2.5836,2.5847,2.5922,2.5955,2.5894,2.5893,2.5905,2.5991,2.6019,2.6028,2.6145,2.6057,2.6063,2.6067,2.607,2.6341,2.6344,0,0,0,0,0,0,2.5694,2.5712,2.5871,2.5878,2.5767,2.5842,2.5854,2.5893,2.5954,2.5961,2.5908,2.5904,2.6008,2.602,2.6031,2.6148,2.6064,2.607,2.6074,2.6338,2.6342,2.6345,0,0,0,0,0,0,2.5689,2.5708,2.5867,2.5795,2.5815,2.5849,2.5893,2.5897,2.5925,2.5965,2.597,2.593,2.6006,2.6022,2.6107,2.6152,2.6073,2.608,2.6334,2.6339,2.6343,2.6385,0,0,0,0,0,0,2.5683,2.5706,2.5745,2.5796,2.5819,2.5942,2.5895,2.5901,2.5937,2.5933,2.5987,2.5994,2.6005,2.6097,2.6114,2.616,2.6085,2.6331,2.6337,2.6342,2.638,2.639,2.6399,0,0,0,0,0,2.5675,2.5753,2.5747,2.5766,2.5867,2.5945,2.5958,2.5969,2.594,2.5978,2.6004,2.5992,2.6145,2.6106,2.6125,2.6174,2.6328,2.6335,2.6342,2.6375,2.6388,2.6399,0,0,0,0,0,0,2.5707,2.576,2.5753,2.585,2.5893,2.5941,2.599,2.5983,2.6035,2.603,2.6042,2.6055,2.6141,2.6166,2.6123,2.6271,2.6232,2.6243,2.6251,2.6264,2.6273,2.6265,2.6091,0,0,0,0,0,2.5725,2.5784,2.5827,2.5908,2.593,2.5956,2.599,2.5995,2.604,2.6058,2.609,2.6134,2.6191,2.6229,2.6285,2.6383,2.6394,2.6426,2.6436,2.6444,2.6453,2.6504,2.6518,2.6368,2.6368,2.6367,0,0,2.5764,2.58,2.5836,2.5915,2.5949,2.6008,2.5971,2.6037,2.608,2.6068,2.615,2.6175,2.6225,2.6317,2.6359,2.634,2.6497,2.6453,2.6459,2.6463,2.6512,2.6527,2.6539,2.6372,2.6371,2.6371,0,0,2.5864,2.5898,2.5968,2.6001,2.6052,2.6069,2.6086,2.6135,2.615,2.6233,2.6224,2.6276,2.6376,2.6411,2.6442,2.6552,2.6543,2.657,2.6621,2.6671,2.6683,2.6693,2.673,2.6744,2.6579,2.658,2.658,0,2.5905,2.5994,2.6005,2.607,2.6104,2.6095,2.6164,2.6197,2.6264,2.6287,2.6266,2.6389,2.6422,2.652,2.6547,2.6573,2.6591,2.6564,2.668,2.6691,2.6701,2.6736,2.6751,2.6582,2.6582,2.6582,2.6581,0,2.6041,2.6103,2.6153,2.6216,2.6256,2.6324,2.6344,2.6383,2.6384,2.6403,2.6485,2.6525,2.6586,2.6611,2.6613,2.6709,2.6695,2.6677,2.6638,2.6718,2.6751,2.6765,2.6586,2.6585,2.6585,2.6584,0,0,2.6165,2.6231,2.6249,2.6276,2.633,2.6378,2.6445,2.6504,2.6536,2.6582,2.6637,2.6721,2.6703,2.6738,2.6744,2.6788,2.687,2.6764,2.6766,2.678,2.6975,2.6986,2.7002,2.6864,2.6867,2.6869,2.6969,0,2.6268,2.6384,2.6394,2.6498,2.6554,2.6545,2.6603,2.6642,2.6661,2.671,2.6732,2.6789,2.6763,2.6784,2.6827,2.6851,2.6909,2.6844,2.6914,2.6916,2.69,2.702,2.7033,2.7126,2.6983,2.6985,2.6987,0,2.6404,2.6452,2.6561,2.6605,2.6629,2.668,2.6734,2.6782,2.6826,2.6836,2.6874,2.6874,2.6941,2.69,2.6991,2.6947,2.6976,2.6992,2.6996,2.7002,2.6955,2.7027,2.7156,2.7169,2.7008,2.7006,2.7005,0,2.648,2.6572,2.6648,2.6672,2.6726,2.6762,2.6786,2.6827,2.6861,2.6908,2.693,2.6985,2.7015,2.7057,2.7071,2.7041,2.7161,2.7123,2.7171,2.717,2.7195,2.7193,2.7329,2.7218,2.7218,2.7217,2.7217,0,2.6593,2.6659,2.6683,2.673,2.6803,2.6814,2.6887,2.6909,2.6945,2.6995,2.6992,2.7039,2.7056,2.7106,2.7117,2.719,2.7204,2.7213,2.7215,2.7212,2.7211,2.723,2.7223,2.7221,2.722,2.722,2.7219,0,2.6689,2.6708,2.679,2.6834,2.6846,2.6898,2.6935,2.698,2.6997,2.7061,2.7076,2.7104,2.7162,2.718,2.7252,2.7259,2.7343,2.734,2.7328,2.7327,2.7373,2.7368,2.7526,2.7546,2.7423,2.7424,2.7425,0,2.6759,2.681,2.6858,2.6891,2.6916,2.697,2.7004,2.7016,2.7052,2.7104,2.7142,2.7199,2.7245,2.7339,2.7365,2.7418,2.7416,2.7467,2.7424,2.7418,2.7413,2.7409,2.7413,2.7475,2.7476,2.7477,2.7478,0,2.6881,2.6887,2.6936,2.6988,2.7028,2.707,2.711,2.7137,2.7155,2.7195,2.7254,2.729,2.7361,2.7417,2.7471,2.7496,2.7489,2.7491,2.7505,2.7502,2.7491,2.7495,2.7347,2.7487,2.7487,2.7486,2.7485,2.7485,2.6965,2.7008,2.7048,2.7102,2.7133,2.717,2.7213,2.7235,2.7284,2.7342,2.7346,2.7409,2.7449,2.7521,2.7548,2.7597,2.7582,2.7602,2.7607,2.7611,2.7613,2.7485,2.7607,2.7607,2.7606,2.7606,2.7606,0,2.7083,2.7108,2.7158,2.7213,2.7255,2.7245,2.7288,2.7324,2.7379,2.7416,2.7461,2.7527,2.7581,2.7611,2.7665,2.7698,2.7696,2.7711,2.7708,2.7713,2.7625,2.7607,2.7712,2.7712,2.7712,2.7712,2.7712,2.7712,2.715,2.7222,2.7232,2.7318,2.7343,2.7403,2.7428,2.7462,2.7492,2.7565,2.761,2.7628,2.7662,2.7718,2.7766,2.7774,2.7792,2.7809,2.7814,2.7731,2.772,2.771,2.7692,2.7814,2.7814,2.7898,2.7899,2.79]},{"header":{"parameterUnit":"m.s-1","parameterCategory":1,"la1":30.2991,"la2":30.254,"lo1":-89.0895,"lo2":-89.0444,"dy":0.0017,"dx":0.0017,"nx":28,"ny":28,"refTime":"2025-07-18T21:00:00:Z","depth":0,"parameterNumber":3,"parameterNumberName":"V-component_of_WINDS"},"data":[0,0,0,0,0,0,0,0,0,0,0,0,0,0,0,0,0,0,0,0,0,0,0,0,0,0,0,0,0,0,0,0,0,0,0,0,0,0,0,0,0,0,0,0,0,0,0,0,0,0,0,0,0,0,0,0,0,0,-0.3104,-0.3104,0,-0.306,-0.3059,-0.3059,-0.3051,-0.3051,-0.3052,-0.3052,-0.3001,-0.3,-0.2998,0,0,0,0,0,0,0,0,0,0,0,0,0,-0.3179,-0.3178,-0.3105,-0.3104,-0.3103,-0.306,-0.3059,-0.3059,-0.3051,-0.3051,-0.3052,-0.3052,-0.3002,-0.3,-0.2998,0,0,0,0,0,0,0,0,0,0,0,0,0,-0.3142,-0.3177,-0.3105,-0.3094,-0.3093,-0.306,-0.3059,-0.3059,-0.3051,-0.3051,-0.3052,-0.3052,-0.3003,-0.3,-0.2998,-0.297,0,0,-0.299,-0.2989,0,0,0,0,0,0,0,0,-0.3144,-0.3139,-0.3096,-0.3095,-0.3093,-0.3062,-0.3067,-0.3029,-0.305,-0.3067,-0.3052,-0.3053,-0.3021,-0.3017,-0.3007,-0.2968,-0.2966,-0.299,-0.2988,-0.2987,-0.2986,0,0,0,0,0,0,0,-0.3146,-0.3141,-0.3087,-0.3096,-0.3094,-0.3091,-0.3086,-0.306,-0.3041,-0.3065,-0.3065,-0.306,-0.302,-0.3009,-0.3006,-0.2965,-0.299,-0.2987,-0.2986,-0.2985,-0.2902,-0.2901,0,0,0,0,0,0,-0.3151,-0.3143,-0.3088,-0.3085,-0.3121,-0.3089,-0.3084,-0.3071,-0.3041,-0.3037,-0.3059,-0.3059,-0.3013,-0.3009,-0.3004,-0.297,-0.2987,-0.2984,-0.2983,-0.2902,-0.2902,-0.2901,0,0,0,0,0,0,-0.3153,-0.3147,-0.309,-0.3114,-0.3107,-0.3087,-0.3073,-0.307,-0.3059,-0.3037,-0.3033,-0.3052,-0.3014,-0.3007,-0.2979,-0.2968,-0.2983,-0.2981,-0.2903,-0.2902,-0.2901,-0.2902,0,0,0,0,0,0,-0.3155,-0.3147,-0.3138,-0.3114,-0.3105,-0.3067,-0.3072,-0.3069,-0.3056,-0.3055,-0.3029,-0.3025,-0.3014,-0.2983,-0.2977,-0.2965,-0.2979,-0.2904,-0.2903,-0.2901,-0.2903,-0.2901,-0.29,0,0,0,0,0,-0.3158,-0.3138,-0.3137,-0.313,-0.3093,-0.3067,-0.3061,-0.305,-0.3055,-0.3044,-0.303,-0.3026,-0.2971,-0.298,-0.2973,-0.296,-0.2905,-0.2903,-0.2902,-0.2903,-0.2901,-0.29,0,0,0,0,0,0,-0.3159,-0.3135,-0.3133,-0.3106,-0.3089,-0.3065,-0.3052,-0.3048,-0.3028,-0.3028,-0.3014,-0.3008,-0.298,-0.2967,-0.2979,-0.2932,-0.2938,-0.2935,-0.2942,-0.2939,-0.2938,-0.2941,-0.2977,0,0,0,0,0,-0.3157,-0.3139,-0.3118,-0.3096,-0.3087,-0.3071,-0.3059,-0.3052,-0.3033,-0.3025,-0.3008,-0.2989,-0.2967,-0.2952,-0.2931,-0.2901,-0.2895,-0.2889,-0.2887,-0.2886,-0.2883,-0.2866,-0.2863,-0.2896,-0.2896,-0.2896,0,0,-0.315,-0.3135,-0.3124,-0.3096,-0.3081,-0.3062,-0.3065,-0.3044,-0.3029,-0.3021,-0.2994,-0.2981,-0.2958,-0.2929,-0.2915,-0.2917,-0.2873,-0.2884,-0.2884,-0.2881,-0.2865,-0.2862,-0.2859,-0.2895,-0.2895,-0.2895,0,0,-0.3129,-0.3116,-0.3096,-0.3083,-0.3062,-0.3051,-0.3047,-0.3024,-0.3016,-0.2989,-0.2983,-0.2964,-0.2927,-0.2911,-0.2898,-0.2872,-0.2867,-0.2865,-0.2856,-0.284,-0.2838,-0.2835,-0.2826,-0.2822,-0.2863,-0.2863,-0.2863,0,-0.3124,-0.3095,-0.3086,-0.3066,-0.3053,-0.3048,-0.3027,-0.3013,-0.2986,-0.2977,-0.298,-0.2934,-0.2918,-0.2885,-0.2879,-0.2869,-0.2862,-0.2868,-0.2839,-0.2837,-0.2834,-0.2825,-0.2821,-0.2863,-0.2863,-0.2863,-0.2863,0,-0.3089,-0.307,-0.3056,-0.3032,-0.3018,-0.2997,-0.2984,-0.297,-0.2965,-0.2954,-0.2926,-0.2907,-0.2882,-0.2874,-0.2867,-0.284,-0.2842,-0.2842,-0.2847,-0.2831,-0.2822,-0.2818,-0.2862,-0.2862,-0.2862,-0.2863,0,0,-0.3066,-0.3039,-0.3034,-0.3023,-0.3,-0.2984,-0.2963,-0.294,-0.2929,-0.291,-0.2892,-0.2861,-0.2862,-0.2847,-0.2839,-0.2825,-0.2805,-0.2827,-0.2826,-0.2823,-0.2773,-0.2773,-0.2769,-0.2803,-0.2802,-0.2801,-0.2775,0,-0.3042,-0.3006,-0.2998,-0.2967,-0.2948,-0.2943,-0.2925,-0.2908,-0.2898,-0.2879,-0.2867,-0.2845,-0.2848,-0.2839,-0.2825,-0.2811,-0.2795,-0.2812,-0.2784,-0.2783,-0.2789,-0.2764,-0.2763,-0.2739,-0.2771,-0.2771,-0.277,0,-0.3009,-0.2991,-0.2959,-0.2939,-0.2931,-0.2915,-0.2894,-0.2877,-0.2858,-0.2851,-0.2835,-0.2829,-0.2806,-0.2813,-0.2781,-0.2793,-0.2781,-0.2772,-0.2771,-0.2767,-0.2775,-0.2759,-0.2731,-0.2727,-0.2765,-0.2765,-0.2766,0,-0.2995,-0.2963,-0.294,-0.2931,-0.2907,-0.2896,-0.2886,-0.2867,-0.2854,-0.2835,-0.2827,-0.2804,-0.2792,-0.2775,-0.2762,-0.2769,-0.273,-0.2737,-0.2723,-0.2723,-0.2714,-0.2715,-0.2684,-0.2708,-0.2708,-0.2708,-0.2708,0,-0.2968,-0.2948,-0.2934,-0.2919,-0.2897,-0.2887,-0.2864,-0.2853,-0.2837,-0.282,-0.2813,-0.2797,-0.2782,-0.2763,-0.2752,-0.2727,-0.2721,-0.2714,-0.2712,-0.2714,-0.2715,-0.2705,-0.2706,-0.2707,-0.2707,-0.2707,-0.2707,0,-0.2948,-0.2938,-0.2912,-0.2893,-0.2887,-0.2871,-0.2854,-0.2839,-0.2829,-0.2807,-0.2801,-0.2784,-0.2762,-0.2748,-0.2719,-0.2712,-0.2684,-0.2682,-0.269,-0.2689,-0.2676,-0.2677,-0.2637,-0.2631,-0.266,-0.266,-0.2659,0,-0.2931,-0.2916,-0.2896,-0.2885,-0.2875,-0.2856,-0.2844,-0.2833,-0.282,-0.2798,-0.2785,-0.2763,-0.2744,-0.2708,-0.2692,-0.267,-0.2667,-0.2655,-0.2664,-0.2667,-0.2666,-0.2667,-0.2665,-0.2653,-0.2653,-0.2652,-0.2652,0,-0.2903,-0.2899,-0.2882,-0.2863,-0.2848,-0.2833,-0.2817,-0.2807,-0.2794,-0.278,-0.2758,-0.2743,-0.2715,-0.2692,-0.2668,-0.2656,-0.2651,-0.265,-0.2645,-0.2648,-0.2653,-0.265,-0.2686,-0.265,-0.2651,-0.2651,-0.2651,-0.2651,-0.2883,-0.287,-0.2854,-0.2835,-0.2823,-0.2808,-0.2794,-0.2783,-0.2765,-0.2741,-0.2736,-0.2713,-0.2694,-0.2662,-0.2649,-0.263,-0.2632,-0.2625,-0.2624,-0.2622,-0.2622,-0.2657,-0.2626,-0.2626,-0.2626,-0.2626,-0.2626,0,-0.2854,-0.2844,-0.2827,-0.2806,-0.2791,-0.2791,-0.2773,-0.276,-0.274,-0.2724,-0.2707,-0.2681,-0.2659,-0.2643,-0.262,-0.2608,-0.2605,-0.2602,-0.2602,-0.2599,-0.2622,-0.2627,-0.2604,-0.2605,-0.2605,-0.2605,-0.2605,-0.2605,-0.2837,-0.2814,-0.2809,-0.2779,-0.2769,-0.2747,-0.2738,-0.2724,-0.2711,-0.2684,-0.2666,-0.2656,-0.2639,-0.2616,-0.2595,-0.2591,-0.2582,-0.258,-0.2575,-0.2595,-0.2598,-0.26,-0.2605,-0.2578,-0.2578,-0.2554,-0.2554,-0.2554]}]]